Flag for Germany Weather past 2 weeks in Dietzenbach, Hesse, Germany

Now
66 °F

Passing clouds.


Feels Like: 66 °F
Forecast: 60 / 81 °F
Wind: 1 mph from Northeast

Location: Frankfurt / M-Flughafen

Current Time: Jul 26, 2014 at 12:15:38 AM

Latest Report: Jul 26, 2014 at 12:00 AM


Visibility: 31 mi

Pressure: 29.88 "Hg

Humidity: 76%

Dew point: 58 °F

Location of DietzenbachLocation

Historic Weather in Dietzenbach — Graph

°F

Dietzenbach temperature yesterday

Maximum temperature yesterday: 78 °F (at 4:00 PM)
Minimum temperature yesterday: 61 °F (at 6:00 AM)
Average temperature yesterday: 69 °F

Past Weeks' High & Low Weather Summary

 TemperatureHumidityPressure
High93 °F (Jul 19, 5:00 PM)96% (Jul 11, 6:00 AM)30.19 "Hg (Jul 11, 6:00 AM)
Low56 °F (Jul 11, 5:00 AM)22% (Jul 18, 6:00 PM)29.76 "Hg (Jul 13, 6:00 PM)
Average72 °F66%29.95 "Hg
* Reported Midnight between Jul 10 and Jul 11 — Jul 25 11:00 PM, Dietzenbach, Weather by CustomWeather, © 2014

Note: Actual official high and low records may vary slightly from our data, if they occured in-between our weather recording intervals... More about our weather records

Advertising

Dietzenbach weather history for previous 24 hours

 ConditionsComfort  
Time TempWeatherWind HumidityBarometerVisibility
11:00 PM
Jul 25
68 °FPassing clouds.1 mph71%29.88 "Hg31 mi
10:00 PM71 °FPassing clouds.2 mph63%29.88 "Hg34 mi
9:00 PM73 °FPartly sunny.2 mph58%29.86 "Hg34 mi
8:00 PM73 °FOvercast.2 mph58%29.87 "Hg34 mi
7:00 PM72 °FThunderstorms. Partly sunny.3 mph60%29.87 "Hg28 mi
6:00 PM74 °FThunderstorms. Partly sunny.7 mph59%29.87 "Hg19 mi
5:00 PM77 °FThunderstorms. Overcast.1 mph46%29.87 "Hg28 mi
4:00 PM78 °FScattered clouds.3 mph44%29.87 "Hg19 mi
3:00 PM76 °FPassing clouds.2 mph49%29.88 "Hg25 mi
2:00 PM76 °FPassing clouds.3 mph53%29.90 "Hg28 mi
1:00 PM75 °FScattered clouds.2 mph54%29.91 "Hg25 mi
12:00 PM73 °FScattered clouds.2 mph59%29.93 "Hg25 mi
11:00 AM70 °FScattered clouds.2 mph63%29.94 "Hg25 mi
10:00 AM68 °FPassing clouds.2 mph68%29.95 "Hg25 mi
9:00 AM66 °FPassing clouds.3 mph76%29.95 "Hg25 mi
8:00 AM64 °FPassing clouds.2 mph82%29.94 "Hg22 mi
7:00 AM61 °FPassing clouds.2 mph86%29.94 "Hg22 mi
6:00 AM61 °FPassing clouds.2 mph87%29.94 "Hg16 mi
4:00 AM62 °FPassing clouds.2 mph88%29.94 "Hg19 mi
3:00 AM63 °FPassing clouds.2 mph87%29.94 "Hg19 mi
2:00 AM64 °FPassing clouds.2 mph88%29.94 "Hg22 mi
1:00 AM64 °FOvercast.2 mph90%29.94 "Hg22 mi
12:00 AM65 °FLight rain. Overcast.5 mph84%29.94 "Hg25 mi
Weather by CustomWeather, © 2014

See weather overviewHow to use our weather pages